Location: Newark
(59.4564°N, 26.6917°E)
Time: 07:55:23
(UTC+00:00)

SR - Pass Details

Date: 01 December 2019
Orbit: 573 x 882 km, 66.7° (Epoch: 13 December)

Event Time Altitude Azimuth Distance (km) Brightness Sun altitude
Rises 15:51:52 0° 300° (WNW) 3,458 ? -17.4°
Reaches altitude 10° 15:54:25 10° 305° (NW) 2,538 ? -17.7°
Maximum altitude 16:00:14 53° 22° (NNE) 1,082 ? -18.4°
Enters shadow 16:02:41 33° 81° (E) 1,454 ? -18.7°
Drops below altitude 10° 16:06:00 10° 99° (E) 2,522 - -19.1°
Sets 16:08:32 0° 104° (ESE) 3,435 - -19.5°
